Home   Weather   Manhattan   Past weeks

Flag for USA Past Weather in Manhattan, Kansas, USA — Yesterday and Last 2 Weeks

Now
35 °F

Sunny.


Feels Like: 27 °F
Forecast: 26 / 40 °F
Wind: 12 mph from North

Location: Manhattan Municipal Airport

Current Time: Dec 6, 2016 at 12:05:03 pm

Latest Report: Dec 6, 2016 at 10:52 am


Visibility: 10 mi

Pressure: 30.14 "Hg

Humidity: 38%

Dew Point: 12 °F

Location of ManhattanLocation

Past Weather in Manhattan — Graph

°F

Manhattan Temperature Yesterday

Maximum temperature yesterday: 56 °F (at 1:52 pm)
Minimum temperature yesterday: 26 °F (at 1:52 am)
Average temperature yesterday: 40 °F

High & Low Weather Summary for the Past Weeks

 TemperatureHumidityPressure
High63 °F (Nov 22, 2:52 pm)100% (Dec 4, 8:03 pm)30.49 "Hg (Dec 4, 8:03 pm)
Low18 °F (Dec 2, 4:52 am)29% (Nov 26, 3:52 pm)29.19 "Hg (Nov 28, 1:52 pm)
Average42 °F72%29.96 "Hg
* Reported Nov 21 10:52 am — Dec 6 10:52 am, Manhattan, Weather by CustomWeather, © 2016

Note: Actual official high and low records may vary slightly from our data, if they occured in-between our weather recording intervals... More about our weather records

Advertising

Manhattan Weather History for the Previous 24 Hours

Scroll right to see more
 ConditionsComfort  
Time TempWeatherWind HumidityBarometerVisibility
10:52 am
Tue, Dec 6
35 °FSunny.12 mph38%30.14 "Hg10 mi
9:52 am33 °FSunny.12 mph48%30.13 "Hg10 mi
8:52 am30 °FSunny.N/A51%30.11 "Hg10 mi
7:52 am28 °FSunny.6 mph56%30.09 "Hg10 mi
6:52 am29 °FClear.6 mph56%30.07 "Hg10 mi
5:52 am31 °FPassing clouds.6 mph59%30.03 "Hg10 mi
4:52 am32 °FClear.5 mph61%30.01 "Hg10 mi
3:52 am33 °FPassing clouds.10 mph66%29.96 "Hg10 mi
2:52 am35 °FOvercast.9 mph64%29.95 "Hg10 mi
1:52 am37 °FOvercast.6 mph67%29.91 "Hg10 mi
12:52 am39 °FMostly cloudy.12 mph67%29.87 "Hg10 mi
11:52 pm
Mon, Dec 5
40 °FOvercast.17 mph73%29.84 "Hg10 mi
10:52 pm39 °FOvercast.7 mph86%29.80 "Hg9 mi
9:52 pm37 °FClear.No wind86%29.75 "Hg10 mi
8:52 pm38 °FClear.No wind83%29.73 "Hg10 mi
7:52 pm40 °FClear.5 mph80%29.72 "Hg10 mi
6:52 pm41 °FClear.5 mph76%29.71 "Hg10 mi
5:52 pm40 °FClear.No wind80%29.71 "Hg10 mi
4:52 pm50 °FSunny.8 mph59%29.70 "Hg10 mi
3:52 pm55 °FSunny.14 mph40%29.68 "Hg10 mi
2:52 pm56 °FSunny.18 mph40%29.67 "Hg10 mi
1:52 pm56 °FSunny.20 mph40%29.67 "Hg10 mi
12:52 pm54 °FSunny.22 mph49%29.71 "Hg10 mi
Weather by CustomWeather, © 2016

See weather overviewHow to use our weather pages